Fulton, NY

9:03 PM EST on November 17, 2017 (GMT -0500)
Oswego County

Weather History for KFZY - February, 2013

Change the Weather History Date:

Thursday, February 14, 2013

  Actual Average (KSYR) Record (KSYR)
Temperature  
Mean Temperature 30 °F -  
Max Temperature 37 °F 31 °F 57 °F (1946)
Min Temperature 23 °F 14 °F -23 °F (2016)
Degree Days  
Heating Degree Days 35    
Moisture  
Dew Point 25 °F    
Average Humidity 78    
Maximum Humidity 93    
Minimum Humidity 53    
Precipitation  
Precipitation 0.12 in - - ()
Sea Level Pressure  
Sea Level Pressure 29.87 in    
Wind  
Wind Speed 3 mph (South)    
Max Wind Speed 10 mph    
Max Gust Speed -    
Visibility 7 miles    
Events Rain , Snow    
Averages and records for this station are not official NWS values.
T = Trace of Precipitation, MM = Missing Value Source: NWS Daily Summary

Daily Weather History Graph

Daily Weather History Graph

Search for Another Location

Airport or City:

Trip Planner

Search our weather history database for the weather conditions in past years. The results will help you decide how hot, cold, wet, or windy it might be!

Date:

Astronomy

Feb. 14, 2013 Rise Set
Actual Time 7:04 AM EST 5:35 PM EST
Civil Twilight 6:35 AM EST 6:04 PM EST
Nautical Twilight 6:01 AM EST 6:38 PM EST
Astronomical Twilight 5:28 AM EST 7:11 PM EST
Moon 8:55 AM EST (2/14) 10:46 PM EST (2/14)
Length of Visible Light 11h 29m
Length of Day
10h 30m
Waxing Crescent, 21% of the Moon is Illuminated
Feb 14
Waxing Crescent
Feb 17
First Quarter
Feb 25
Full
Mar 4
Last Quarter
Mar 11
New

Hourly Weather History & Observations

Time (EST) Temp. Windchill Dew Point Humidity Pressure Visibility Wind Dir Wind Speed Gust Speed Precip Events Conditions
12:54 AM 23.0 °F - 19.9 °F 88% 29.81 in 7.0 mi Calm Calm - N/A   Overcast
1:54 AM 25.0 °F - 21.9 °F 88% 29.81 in 10.0 mi Calm Calm - N/A   Overcast
2:20 AM 24.8 °F - 21.2 °F 86% 29.80 in 9.0 mi Calm Calm - N/A   Overcast
2:35 AM 24.8 °F - 23.0 °F 93% 29.80 in 8.0 mi Calm Calm - N/A   Overcast
2:54 AM 27.0 °F 21.6 °F 21.9 °F 81% 29.83 in 8.0 mi SW 4.6 mph - N/A   Overcast
3:54 AM 28.0 °F - 23.0 °F 81% 29.84 in 10.0 mi Calm Calm - N/A   Overcast
4:54 AM 25.0 °F 19.3 °F 21.0 °F 85% 29.86 in 8.0 mi SW 4.6 mph - N/A   Scattered Clouds
5:54 AM 27.0 °F 21.6 °F 21.9 °F 81% 29.88 in 7.0 mi WSW 4.6 mph - N/A   Overcast
6:54 AM 25.0 °F - 21.0 °F 85% 29.90 in 7.0 mi Calm Calm - N/A   Mostly Cloudy
7:54 AM 27.0 °F - 21.9 °F 81% 29.92 in 6.0 mi Calm Calm - N/A   Haze
8:08 AM 28.4 °F 24.6 °F 21.2 °F 74% 29.90 in 6.0 mi SSW 3.5 mph - N/A   Haze
8:54 AM 28.9 °F 23.9 °F 21.9 °F 75% 29.94 in 7.0 mi SSW 4.6 mph - N/A   Overcast
9:54 AM 30.0 °F 24.1 °F 23.0 °F 75% 29.94 in 7.0 mi South 5.8 mph - N/A   Overcast
10:54 AM 32.0 °F 23.6 °F 21.0 °F 64% 29.94 in 10.0 mi SSW 10.4 mph - N/A   Overcast
11:54 AM 33.1 °F 27.7 °F 21.9 °F 64% 29.93 in 10.0 mi South 5.8 mph - N/A   Overcast
12:54 PM 34.0 °F 28.0 °F 23.0 °F 64% 29.91 in 10.0 mi SSW 6.9 mph - N/A   Overcast
1:07 PM 33.8 °F 28.6 °F 23.0 °F 65% 29.89 in 9.0 mi SW 5.8 mph - N/A   Overcast
1:54 PM 35.1 °F 29.3 °F 23.0 °F 61% 29.90 in 10.0 mi South 6.9 mph - N/A   Clear
2:54 PM 36.0 °F 30.3 °F 23.0 °F 59% 29.87 in 10.0 mi South 6.9 mph - N/A   Clear
3:54 PM 37.9 °F 32.7 °F 21.9 °F 53% 29.86 in 10.0 mi ESE 6.9 mph - N/A   Mostly Cloudy
4:54 PM 37.0 °F - 23.0 °F 57% 29.87 in 9.0 mi Calm Calm - N/A   Overcast
5:54 PM 36.0 °F 32.1 °F 23.0 °F 59% 29.86 in 10.0 mi ESE 4.6 mph - N/A   Overcast
6:54 PM 36.0 °F 29.0 °F 26.1 °F 67% 29.88 in 7.0 mi South 9.2 mph - 0.00 in Snow Light Snow
7:08 PM 35.6 °F 29.9 °F 28.4 °F 75% 29.86 in 3.0 mi Variable 6.9 mph - 0.00 in Snow Light Snow
7:47 PM 33.8 °F 30.8 °F 30.2 °F 87% 29.85 in 1.8 mi ESE 3.5 mph - 0.00 in Snow Light Snow
7:54 PM 33.1 °F 30.0 °F 30.0 °F 89% 29.87 in 1.8 mi SE 3.5 mph - 0.00 in Snow Light Snow
7:58 PM 33.8 °F 30.8 °F 30.2 °F 87% 29.85 in 2.0 mi SE 3.5 mph - 0.01 in Snow Light Snow
8:25 PM 33.8 °F 30.8 °F 30.2 °F 87% 29.85 in 1.8 mi SE 3.5 mph - 0.02 in Snow Light Snow
8:32 PM 33.8 °F 30.8 °F 30.2 °F 87% 29.85 in 2.5 mi SE 3.5 mph - 0.02 in Snow Light Snow
8:54 PM 33.1 °F 30.0 °F 30.9 °F 92% 29.86 in 2.5 mi SE 3.5 mph - 0.03 in Snow Light Snow
9:54 PM 34.0 °F 31.0 °F 32.0 °F 92% 29.86 in 3.0 mi SSE 3.5 mph - 0.03 in Rain Light Rain
10:54 PM 35.1 °F 28.6 °F 32.0 °F 89% 29.84 in 4.0 mi South 8.1 mph - 0.02 in Rain Light Rain
11:54 PM 34.0 °F 27.2 °F 32.0 °F 92% 29.82 in 3.0 mi South 8.1 mph - 0.04 in Rain Light Rain